Regional Weather Roundup
Issued by NWS

Home | Current Version | Previous Version | Text Only | Print | Product List | Glossary Off
Versions: 1 2 3 4 5 6 7 8 9 10 11 12 13 14 15 16 17 18 19 20 21 22 23 24 25 26 27 28 29 30 31 32 33 34 35 36 37 38 39 40 41 42 43 44 45 46 47 48 49 50

000
ASUS43 KLSX 182157
RWRMO

WEATHER SUMMARY FOR MISSOURI
NATIONAL WEATHER SERVICE SPRINGFIELD MO
400 PM CST WED JAN 18 2017

NOTE: "FAIR" INDICATES FEW OR NO CLOUDS BELOW 12,000 FEET WITH NO
       SIGNIFICANT WEATHER AND/OR OBSTRUCTIONS TO VISIBILITY.
       CURRENT SKY AND/OR WEATHER CONDITIONS ARE NOT AVAILABLE FOR
       CHILLICOTHE AND FARMINGTON.

MOZ001>031-035>038-043-044-053-054-182300-
...NORTHERN AND WESTERN MISSOURI...

CITY           SKY/WX    TMP DP  RH WIND       PRES   REMARKS
KANSAS CTY INT SUNNY     48  37  65 SE10      30.00F
LEE`S SUMMIT   SUNNY     48  39  71 SE5       30.02F
ST JOSEPH      SUNNY     49  39  68 SE10      30.00F
CHILLICOTHE      N/A     42  37  82 SE5       30.05F

$$
MOZ066>068-077>081-088>096-101>105-182300-
...SOUTHWEST MISSOURI...

CITY           SKY/WX    TMP DP  RH WIND       PRES   REMARKS
SPRINGFIELD    CLOUDY    49  38  65 SE9       30.04R
JOPLIN         CLOUDY    54  41  61 SE8       30.03F
BRANSON        CLOUDY    41  39  93 E8        30.07F

$$
MOZ032>034-039>042-045>050-055>058-069>072-182300-
...CENTRAL MISSOURI...

CITY           SKY/WX    TMP DP  RH WIND       PRES   REMARKS
COLUMBIA       NOT AVBL
JEFFERSON CITY SUNNY     50  35  56 E7        30.07F
ROLLA          CLOUDY    49  35  58 MISG      30.06S
SEDALIA        CLOUDY    50  39  66 S5        30.06S
WARRENSBURG    MOSUNNY   46  37  71 SE3       30.05S

$$
MOZ051-052-059>065-182300-
...EAST CENTRAL MISSOURI...

CITY           SKY/WX    TMP DP  RH WIND       PRES   REMARKS
ST LOUIS INTL  PTSUNNY   48  34  58 SE8       30.10F

$$
MOZ072>076-082>087-097>100-106>115-182300-
...SOUTH CENTRAL AND SOUTHEAST MISSOURI...

CITY           SKY/WX    TMP DP  RH WIND       PRES   REMARKS
CAPE GIRARDEAU CLOUDY    43  37  79 SE7       30.14F
POPLAR BLUFF   CLOUDY    44  40  85 NE3       30.12F
WEST PLAINS    CLOUDY    42  38  85 SE5       30.09F

$$


USA.gov is the U.S. government's official web portal to all federal, state and local government web resources and services.